Weather History for Torrington, WY

Change the Weather History Date:

Sunday, May 11, 2014

  Actual Average Record
Temperature  
Mean Temperature 39 °F 55 °F  
Max Temperature 46 °F 70 °F 87 °F (2007)
Min Temperature 32 °F 41 °F 28 °F (2008)
Degree Days  
Heating Degree Days 26 10  
Month to date heating degree days 160 130  
Since 1 July heating degree days 6669 6362  
Cooling Degree Days 0 0  
Month to date cooling degree days 0 0  
Year to date cooling degree days 0 1  
Moisture  
Dew Point 33 °F    
Average Humidity 95    
Maximum Humidity 100    
Minimum Humidity 89    
Precipitation  
Precipitation 1.35 in 0.06 in 1.35 in (2014)
Month to date precipitation 2.45 0.75  
Year to date precipitation 5.19 3.76  
Sea Level Pressure  
Sea Level Pressure 29.97 in    
Wind  
Wind Speed 12 mph (NNW)    
Max Wind Speed 33 mph    
Max Gust Speed 39 mph    
Visibility 3 miles    
Events Fog , Rain , Snow    
T = Trace of Precipitation, MM = Missing Value Source: NWS Daily Summary

Daily Weather History Graph

Daily Weather History Graph

Search for Another Location

Airport:

Trip Planner

Search our weather history database for the weather conditions in past years. The results will help you decide how hot, cold, wet, or windy it might be!

Date:

Astronomy

May. 11, 2014 Rise Set
Actual Time 5:40 AM MDT 8:06 PM MDT
Civil Twilight 5:08 AM MDT 8:38 PM MDT
Nautical Twilight 4:29 AM MDT 9:17 PM MDT
Astronomical Twilight 3:45 AM MDT 10:01 PM MDT
Moon 5:01 PM MDT (5/11) 3:50 AM MDT (5/11)
Length of Visible Light 15h 29m
Length of Day
14h 26m
Waxing Gibbous, 89% of the Moon is Illuminated
May 11
Waxing Gibbous
May 14
Full
May 21
Last Quarter
May 28
New
Jun 5
First Quarter

Hourly Weather History & Observations

Time (MDT) Temp. Windchill Dew Point Humidity Pressure Visibility Wind Dir Wind Speed Gust Speed Precip Events Conditions
12:42 AM 48.9 °F - 44.1 °F 83% 29.84 in 6.0 mi North 12.7 mph - 0.03 in Rain Rain
12:53 AM 46.9 °F - 43.0 °F 86% 29.77 in 6.0 mi North 21.9 mph 26.5 mph 0.05 in Rain Rain
1:00 AM 46.0 °F 38.5 °F 43.0 °F 89% 29.83 in 8.0 mi North 19.6 mph - 0.01 in Rain Light Rain
1:53 AM 43.0 °F 33.5 °F 39.9 °F 89% 29.76 in 9.0 mi North 24.2 mph 34.5 mph 0.08 in Rain Light Rain
2:53 AM 39.9 °F 29.0 °F 37.0 °F 89% 29.76 in 10.0 mi North 26.5 mph 34.5 mph 0.02 in Rain Light Rain
3:04 AM 39.0 °F 27.8 °F 37.0 °F 93% 29.82 in 7.0 mi North 26.5 mph 38.0 mph 0.02 in Rain Rain
3:27 AM 39.0 °F 27.4 °F 36.0 °F 89% 29.85 in 10.0 mi North 28.8 mph 38.0 mph 0.04 in Rain Light Rain
3:53 AM 37.9 °F 26.1 °F 35.1 °F 89% 29.81 in 5.0 mi North 27.6 mph 36.8 mph 0.09 in Rain Rain
4:11 AM 37.0 °F 24.9 °F 34.0 °F 89% 29.87 in 8.0 mi North 27.6 mph 38.0 mph 0.04 in Rain Light Rain
4:37 AM 34.0 °F 22.7 °F 32.0 °F 92% 29.89 in 2.5 mi North 19.6 mph - 0.07 in Snow Light Snow
4:53 AM 33.1 °F 21.2 °F 32.0 °F 96% 29.85 in 2.5 mi NNE 20.7 mph - 0.08 in Snow Light Snow
5:07 AM 33.1 °F 21.5 °F 32.0 °F 96% 29.87 in 2.5 mi NNE 19.6 mph - 0.00 in Snow Light Snow
5:17 AM 33.1 °F 21.2 °F 32.0 °F 96% 29.87 in 3.0 mi NNE 20.7 mph - 0.01 in Snow Light Snow
5:26 AM 33.1 °F 21.9 °F 32.0 °F 96% 29.88 in 2.5 mi North 18.4 mph - 0.01 in Snow Light Snow
5:48 AM 33.8 °F 25.3 °F 32.0 °F 93% 29.90 in 2.5 mi North 11.5 mph 19.6 mph 0.02 in Snow Light Snow
5:53 AM 33.1 °F 23.4 °F 32.0 °F 96% 29.87 in 3.0 mi North 13.8 mph - 0.03 in Snow Light Snow
6:01 AM 33.1 °F 23.0 °F 32.0 °F 96% 29.89 in 5.0 mi North 15.0 mph - 0.01 in Snow Light Snow
6:24 AM 33.1 °F 25.5 °F 32.0 °F 96% 29.93 in 2.0 mi NNW 9.2 mph - 0.03 in Snow Light Snow
6:30 AM 33.1 °F 27.7 °F 32.0 °F 96% 29.93 in 1.8 mi NNW 5.8 mph - 0.04 in Snow Light Snow
6:42 AM 32.0 °F 26.4 °F 32.0 °F 100% 29.92 in 1.0 mi NNW 5.8 mph - 0.04 in Snow Light Snow
6:49 AM 32.0 °F 26.4 °F 32.0 °F 100% 29.93 in 0.8 mi North 5.8 mph - 0.04 in Snow Light Snow
6:53 AM 32.0 °F 25.6 °F 32.0 °F 100% 29.91 in 0.5 mi North 6.9 mph - 0.05 in Fog , Snow Snow
7:46 AM 33.1 °F 25.5 °F 32.0 °F 96% 29.94 in 1.0 mi NNW 9.2 mph - 0.01 in Snow Light Snow
7:53 AM 33.1 °F 24.4 °F 32.0 °F 96% 29.93 in 1.0 mi NNW 11.5 mph - 0.02 in Snow Light Snow
8:06 AM 33.1 °F 24.9 °F 32.0 °F 96% 29.93 in 0.8 mi NNW 10.4 mph - 0.00 in Snow Light Snow
8:40 AM 32.0 °F 23.6 °F 32.0 °F 100% 29.94 in 1.2 mi NW 10.4 mph - 0.02 in Snow Light Snow
8:53 AM 32.0 °F 23.6 °F 32.0 °F 100% 29.95 in 1.0 mi NW 10.4 mph - 0.02 in Snow Light Snow
9:00 AM 32.0 °F 24.8 °F 32.0 °F 100% 29.96 in 0.8 mi NW 8.1 mph - 0.01 in Snow Light Snow
9:33 AM 33.1 °F 24.9 °F 32.0 °F 96% 29.95 in 1.0 mi NNW 10.4 mph - 0.03 in Snow Light Snow
9:41 AM 33.1 °F 25.5 °F 32.0 °F 96% 29.95 in 0.8 mi NNW 9.2 mph - 0.03 in Snow Light Snow
9:49 AM 33.8 °F 26.4 °F 32.0 °F 93% 29.95 in 1.0 mi NNW 9.2 mph - 0.04 in Snow Light Snow
9:53 AM 33.1 °F 25.5 °F 32.0 °F 96% 29.96 in 1.0 mi NNW 9.2 mph - 0.04 in Snow Light Snow
10:03 AM 33.1 °F 25.5 °F 32.0 °F 96% 29.95 in 0.8 mi North 9.2 mph - 0.01 in Snow Light Snow
10:14 AM 33.1 °F 26.1 °F 32.0 °F 96% 29.95 in 1.0 mi NNW 8.1 mph - 0.02 in Snow Light Snow
10:31 AM 33.1 °F 26.1 °F 32.0 °F 96% 29.95 in 0.8 mi NNW 8.1 mph - 0.04 in Snow Light Snow
10:53 AM 33.1 °F 26.9 °F 32.0 °F 96% 29.96 in 0.8 mi NNW 6.9 mph - 0.07 in Snow Light Snow
11:34 AM 33.1 °F 23.4 °F 32.0 °F 96% 29.95 in 0.8 mi NNW 13.8 mph - 0.05 in Snow Light Snow
11:48 AM 33.8 °F 25.3 °F 32.0 °F 93% 29.95 in 0.5 mi NNW 11.5 mph - 0.07 in Fog , Snow Snow
11:53 AM 33.1 °F 24.4 °F 32.0 °F 96% 29.96 in 0.5 mi NNW 11.5 mph - 0.07 in Fog , Snow Snow
12:53 PM 33.1 °F 24.4 °F 32.0 °F 96% 29.96 in 0.5 mi NNW 11.5 mph - 0.07 in Fog , Snow Snow
1:33 PM 33.1 °F 23.0 °F 32.0 °F 96% 29.94 in 1.0 mi NNW 15.0 mph 21.9 mph 0.05 in Snow Light Snow
1:53 PM 33.1 °F 23.9 °F 32.0 °F 96% 29.98 in 1.0 mi NW 12.7 mph - 0.09 in Snow Light Snow
2:53 PM 33.1 °F 26.9 °F 32.0 °F 96% 30.02 in 1.0 mi NW 6.9 mph - 0.09 in Snow Light Snow
3:20 PM 33.1 °F 26.9 °F 32.0 °F 96% 29.99 in 0.8 mi NW 6.9 mph - 0.03 in Snow Light Snow
3:53 PM 32.0 °F 26.4 °F 32.0 °F 100% 30.05 in 0.5 mi NNW 5.8 mph - 0.07 in Fog , Snow Snow
4:38 PM 33.1 °F 26.1 °F 32.0 °F 96% 30.01 in 1.0 mi NW 8.1 mph - 0.04 in Snow Light Snow
4:53 PM 33.1 °F 26.9 °F 32.0 °F 96% 30.08 in 1.5 mi NW 6.9 mph - 0.06 in Snow Light Snow
5:24 PM 32.0 °F 26.4 °F 32.0 °F 100% 30.04 in 1.0 mi WNW 5.8 mph - 0.03 in Snow Light Snow
5:32 PM 32.0 °F 25.6 °F 32.0 °F 100% 30.04 in 0.8 mi WNW 6.9 mph - 0.04 in Snow Light Snow
5:53 PM 32.0 °F 25.6 °F 32.0 °F 100% 30.12 in 0.8 mi WNW 6.9 mph - 0.05 in Snow Light Snow
6:02 PM 32.0 °F 24.8 °F 32.0 °F 100% 30.04 in 0.8 mi WNW 8.1 mph - 0.01 in Snow Light Snow
6:10 PM 32.0 °F 25.6 °F 32.0 °F 100% 30.05 in 1.0 mi NW 6.9 mph - 0.01 in Snow Light Snow
6:20 PM 32.0 °F 25.6 °F 32.0 °F 100% 30.04 in 0.8 mi NNW 6.9 mph - 0.02 in Snow Light Snow
6:27 PM 32.0 °F 26.4 °F 32.0 °F 100% 30.05 in 1.2 mi NW 5.8 mph - 0.03 in Snow Light Snow
6:53 PM 32.0 °F 26.4 °F 32.0 °F 100% 30.12 in 1.2 mi West 5.8 mph - 0.04 in Snow Light Snow
7:19 PM 32.0 °F 24.8 °F 32.0 °F 100% 30.06 in 3.0 mi WNW 8.1 mph - 0.02 in Snow Light Snow
7:32 PM 32.0 °F 25.6 °F 32.0 °F 100% 30.06 in 2.5 mi NW 6.9 mph - 0.02 in Snow Light Snow
7:39 PM 33.1 °F 24.9 °F 32.0 °F 96% 30.05 in 6.0 mi NW 10.4 mph - 0.03 in Snow Light Snow
7:53 PM 33.1 °F 24.9 °F 32.0 °F 96% 30.12 in 4.0 mi NW 10.4 mph - 0.04 in Snow Light Snow
8:35 PM 33.1 °F 26.9 °F 32.0 °F 96% 30.09 in 10.0 mi WNW 6.9 mph - 0.02 in   Overcast
8:53 PM 33.1 °F 25.5 °F 32.0 °F 96% 30.15 in 10.0 mi WNW 9.2 mph - 0.03 in   Overcast
9:53 PM 34.0 °F 26.6 °F 33.1 °F 96% 30.16 in 6.0 mi NW 9.2 mph - 0.05 in Snow Light Snow
10:05 PM 34.0 °F 28.0 °F 32.0 °F 92% 30.11 in 4.0 mi NNW 6.9 mph - 0.01 in Snow Light Snow
10:53 PM 34.0 °F 27.2 °F 33.1 °F 96% 30.16 in 9.0 mi North 8.1 mph - 0.08 in   Overcast
11:29 PM 34.0 °F 31.0 °F 32.0 °F 92% 30.11 in 9.0 mi WNW 3.5 mph - 0.03 in Snow Light Snow
11:43 PM 34.0 °F 29.8 °F 33.1 °F 96% 30.12 in 10.0 mi NW 4.6 mph - 0.05 in Rain Light Rain
11:53 PM 35.1 °F 29.3 °F 32.0 °F 89% 30.19 in 10.0 mi NW 6.9 mph - 0.05 in Rain Light Rain